AAC-HSI-SAT2

导读

AAC-HSI-SAT2是一颗由英国于2023年6月12日发射的近地观测卫星,运行在倾角97.7953°的太阳同步轨道上,轨道近地点高度约503公里、远地点约520公里,每日绕地球约15圈。 该卫星搭载先进红外传感器,可精准识别单栋建筑的热辐射差异,绘制建筑物热量分布图谱,为英国能效改造提供数据支撑,助力定位高能耗建筑,推动城市节能降碳。

Basic Information
目录编号:
56995
目录名称:
AAC-HSI-SAT2
国际标识:
2023-084BX
轨道中心:
EARTH
卫星名称:
AAC-HSI-SAT2
卫星全名:
--
卫星状态:
在轨 (已飞行1181 天)
发射日期:
2023-06-12 UTC
国别 :
英国 (GB)
星等 :
--
Orbit Information
数据来源 国际轨道数据
星历时间: 2026-09-05T13:27:49+0800
7小时前
查看轨道信息
半长轴: 6881.269km
偏心率: 0.0010612
轨道倾角: 97.836°
近地点辐角 268.417°
升交点赤经 41.559°
平近点角 91.585°
近地点: 495.829km
远地点: 510.435km
周期: 94.681分钟
每日圈数: 15.208977
Detailed Information
使用方式:
暂无
2D Orbit Map
3D Orbit Map
Orbit Altitude Analysis Chart
Orbit Inclination Analysis Chart
Orbit Comprehensive Analysis Chart
View Comprehensive Chart
Conjunction Data List
Event ID Objects TCA Miss Dist (km) Collision Risk Probability Collision Risk Index (CRI) Action
CDM_260907-015205-699506-844323
2026-09-07T
01:52:55+0000
2.087 km
极远距离
2.586981E-6 低风险 0.43
CDM_260904-030003-992205-699522
2026-09-04T
03:00:02+0000
2.822 km
极远距离
1.446405E-6 低风险 0.38